Location: Winthrop
(48.4780°N, 120.1850°W)
Time: 02:16:43
(UTC-07:00)

Transit 2A - Pass Details

Date: 14 June 2024
Orbit: 591 x 960 km, 66.7° (Epoch: 23 July)

Event Time Altitude Azimuth Distance (km) Brightness Sun altitude
Rises 01:29:55 0° 326° (NW) 3,439 10.2 -17.9°
Reaches altitude 10° 01:32:29 10° 333° (NNW) 2,550 9.5 -17.9°
Maximum altitude 01:38:09 42° 44° (NE) 1,302 7.6 -17.8°
Drops below altitude 10° 01:44:06 10° 114° (ESE) 2,681 8.7 -17.6°
Sets 01:46:50 0° 121° (ESE) 3,634 9.3 -17.5°
